Miscellaneous Local Product
Issued by NWS Hastings, NE

Home | Current Version | Previous Version | Text Only | Print | Product List | Glossary On
Versions: 1 2 3 4 5 6 7 8 9 10 11 12 13 14 15 16 17 18 19 20 21 22 23 24 25 26 27 28 29 30 31 32 33 34 35 36 37 38 39 40 41 42 43 44 45 46 47 48 49 50
131
AXUS43 KGID 240802
MISGRI

GID CWA HOURLY WEATHER ROUNDUP
NATIONAL WEATHER SERVICE HASTINGS NE
300 AM CDT SUN SEP 24 2017

NOTE: "FAIR" INDICATES FEW OR NO CLOUDS BELOW 12,000 FEET WITH NO
SIGNIFICANT WEATHER AND/OR OBSTRUCTIONS TO VISIBILITY.

...SOUTH CENTRAL NEBRASKA...

CITY           SKY/WX    TMP DP  RH WIND       PRES   REMARKS
GRAND ISLAND   PTCLDY    69  63  81 S10       29.87S
HASTINGS       PTCLDY    72  60  66 S12       29.88S
KEARNEY        CLOUDY    59  58  96 N6        29.88F
ORD            CLOUDY    57  55  93 N6        29.87F FOG
YORK           PTCLDY    72  63  73 S8        29.89S
AURORA         PTCLDY    68  62  82 S8        29.88F
LEXINGTON      DRIZZLE   59  57  94 CALM      29.87S
HOLDREGE       CLOUDY    59  58  95 CALM      29.87S
HEBRON         MOCLDY    70  62  75 SE3       29.90S

...NEBRASKA PANHANDLE...

CITY           SKY/WX    TMP DP  RH WIND       PRES   REMARKS
CHADRON        CLOUDY    46  44  93 NE7       29.97S
ALLIANCE       LGT RAIN  44  43  96 NE10      29.94F
SCOTTSBLUFF    CLOUDY    46  43  89 W8        29.98R
SIDNEY         LGT RAIN  44  43  96 N9        29.96R

...WESTERN AND NORTH CENTRAL NEBRASKA...

CITY           SKY/WX    TMP DP  RH WIND       PRES   REMARKS
VALENTINE      LGT RAIN  51  49  92 N6        29.93S
AINSWORTH      RAIN      50  50 100 N6        29.91S
ONEILL         CLOUDY    54  54 100 N6        29.90S FOG
BROKEN BOW     LGT RAIN  55  54  96 N8        29.87F
IMPERIAL       LGT RAIN  49  47  93 N14       29.91S
NORTH PLATTE   HVY RAIN  53  52  96 NW8       29.90S FOG
MCCOOK         FOG       59  59 100 E8        29.84S VSB 1

...EASTERN NEBRASKA...

CITY           SKY/WX    TMP DP  RH WIND       PRES   REMARKS
NORFOLK        CLOUDY    59  59 100 SE6       29.87S
SO SIOUX CITY  CLEAR     59  59 100 S3        29.89S
TEKAMAH        PTCLDY    69  65  86 SE7       29.89S
COLUMBUS       CLOUDY    73  63  70 SE10      29.88F
ALBION         MOCLDY    59  58  94 SE3       29.87F
OMAHA EPPLEY   MOCLDY    73  64  73 S10       29.91S
OFFUTT AFB     CLEAR     70  65  84 SE7       29.91S
MILLARD        CLEAR     73  66  79 SE5       29.91R
LINCOLN        PTCLDY    72  63  73 S9        29.90R
NEBRASKA CITY  CLEAR     71  68  90 S8        29.92F
BEATRICE       CLEAR     73  64  71 SE7       29.91R
FALLS CITY     CLEAR     68  65  90 SE5       29.92S

...NORTHERN KANSAS...

CITY           SKY/WX    TMP DP  RH WIND       PRES   REMARKS
GOODLAND       HVY RAIN  50  50 100 NW18G25   29.87S FOG
HILL CITY      CLOUDY    66  64  93 E3        29.87S
NORTON         LGT RAIN  59  55  88 E6        29.83F
PHILLIPSBURG   MOCLDY    72  61  68 SE5       29.86S
SMITH CENTER   MOCLDY    72  61  68 SE12G18   29.87R
HAYS           CLOUDY    73  61  65 S16       29.86F
RUSSELL        PTCLDY    73  62  68 S15       29.86F
CONCORDIA      PTCLDY    71  64  78 S10       29.89R
SALINA         CLEAR     75  64  68 SE10      29.88S
TOPEKA         CLEAR     69  67  93 CALM      29.93R



USA.gov is the U.S. government's official web portal to all federal, state and local government web resources and services.